Flag for Brunei Weather past 2 weeks in Bandar Seri Begawan, Brunei

Now
82 °F

Partly cloudy.


Feels Like: 91 °F
Forecast: 75 / 85 °F
Wind: 12 mph from North

Location: Brunei Airport

Current Time: Jan 26, 2015 at 7:18:37 PM

Latest Report: Jan 26, 2015 at 7:00 PM


Visibility: N/A

Pressure: 29.83 "Hg

Humidity: 84%

Dew point: 77 °F

Location of Bandar Seri BegawanLocation

Historic Weather in Bandar Seri Begawan — Graph

°F

Bandar Seri Begawan temperature yesterday

Maximum temperature yesterday: 86 °F (at 12:00 PM)
Minimum temperature yesterday: 73 °F (at 12:00 AM)
Average temperature yesterday: 79 °F

Past Weeks' High & Low Weather Summary

 TemperatureHumidityPressure
High88 °F (Jan 12, 1:00 PM)100% (Jan 12, 3:00 AM)30.04 "Hg (Jan 12, 3:00 AM)
Low73 °F (Jan 17, 11:30 PM)62% (Jan 12, 1:00 PM)29.71 "Hg (Jan 12, 2:30 PM)
Average79 °F89%29.88 "Hg
* Reported Jan 11 6:00 PM — Jan 26 6:00 PM, Bandar Seri Begawan, Weather by CustomWeather, © 2014

Note: Actual official high and low records may vary slightly from our data, if they occured in-between our weather recording intervals... More about our weather records

Advertising

Bandar Seri Begawan weather history for previous 24 hours

 ConditionsComfort  
Time TempWeatherWind HumidityBarometerVisibility
6:00 PM
Jan 26
82 °FBroken clouds.14 mph84%29.83 "HgN/A
5:30 PM82 °FBroken clouds.12 mph84%29.80 "HgN/A
5:00 PM82 °FBroken clouds.14 mph84%29.80 "HgN/A
4:30 PM84 °FPartly sunny.13 mph79%29.80 "HgN/A
4:00 PM84 °FBroken clouds.10 mph79%29.80 "HgN/A
3:30 PM84 °FBroken clouds.12 mph74%29.80 "HgN/A
3:00 PM86 °FBroken clouds.10 mph70%29.83 "HgN/A
2:30 PM86 °FBroken clouds.12 mph70%29.83 "HgN/A
2:00 PM86 °FBroken clouds.12 mph70%29.86 "HgN/A
1:30 PM86 °FBroken clouds.10 mph70%29.86 "Hg6 mi
1:00 PM86 °FBroken clouds.10 mph75%29.86 "Hg6 mi
12:30 PM84 °FBroken clouds.10 mph79%29.89 "HgN/A
12:00 PM86 °FBroken clouds.6 mph70%29.89 "HgN/A
11:30 AM86 °FBroken clouds.7 mph75%29.92 "HgN/A
10:30 AM82 °FBroken clouds.7 mph84%29.92 "HgN/A
10:00 AM82 °FBroken clouds.2 mph84%29.92 "HgN/A
9:30 AM82 °FBroken clouds.2 mph84%29.95 "HgN/A
9:00 AM81 °FBroken clouds.3 mph89%29.95 "HgN/A
8:30 AM79 °FBroken clouds.2 mph94%29.92 "HgN/A
8:00 AM77 °FPartly sunny.1 mph94%29.92 "HgN/A
7:30 AM75 °FPartly sunny.2 mph100%29.92 "HgN/A
7:00 AM75 °FPartly sunny.2 mph100%29.89 "HgN/A
6:30 AM75 °FPassing clouds.1 mph100%29.89 "HgN/A
6:00 AM75 °FPassing clouds.1 mph100%29.89 "Hg6 mi
5:30 AM75 °FPassing clouds.2 mph100%29.86 "Hg6 mi
4:30 AM75 °FPassing clouds.2 mph100%29.86 "Hg6 mi
4:00 AM75 °FPartly cloudy.2 mph100%29.86 "Hg5 mi
3:30 AM75 °FPartly cloudy.2 mph100%29.86 "Hg5 mi
3:00 AM75 °FPassing clouds.3 mph100%29.89 "Hg5 mi
2:30 AM75 °FPassing clouds.5 mph100%29.89 "Hg5 mi
2:00 AM77 °FPassing clouds.3 mph100%29.89 "Hg5 mi
1:30 AM77 °FPassing clouds.5 mph94%29.92 "Hg5 mi
1:00 AM77 °FPassing clouds.5 mph100%29.92 "Hg5 mi
12:30 AM77 °FPassing clouds.5 mph100%29.92 "Hg5 mi
12:00 AM77 °FPassing clouds.1 mph100%29.92 "Hg5 mi
11:30 PM
Jan 25
77 °FPassing clouds.2 mph100%29.92 "Hg5 mi
11:00 PM77 °FPassing clouds.2 mph100%29.92 "Hg5 mi
10:30 PM77 °FLight rain. Passing clouds.2 mph100%29.92 "Hg5 mi
10:00 PM77 °FLight rain. Passing clouds.3 mph100%29.95 "Hg4 mi
9:30 PM77 °FThunderstorms. Partly cloudy.5 mph100%29.95 "Hg3 mi
9:00 PM77 °FThunderstorms. Partly cloudy.7 mph94%29.95 "Hg2 mi
8:30 PM79 °FThunderstorms. Partly cloudy.6 mph94%29.92 "Hg2 mi
8:00 PM81 °FLight rain. Partly cloudy.9 mph89%29.92 "Hg4 mi
7:30 PM82 °FLight rain. Partly cloudy.10 mph84%29.89 "Hg4 mi
7:00 PM82 °FLight rain. Partly cloudy.10 mph84%29.89 "Hg4 mi
Weather by CustomWeather, © 2014

See weather overviewHow to use our weather pages